This is the latest recevied weather packets stored in our database for station/object K4AGR-13. If no packets are shown the sender has not sent any weather packets the latest 10 day(s).
| Time | Temp. | Humidity | Pressure | Rain* | Wind** | Luminosity | Snow |
|---|---|---|---|---|---|---|---|
| 1777506862 | 23.33° C | 88% | 1012 hPa | 1.27 mm | - | 7 W/m² | - |
| 1777505647 | 23.33° C | 85% | 1011.6 hPa | 0 mm | - | 10 W/m² | - |
| 1777502916 | 26.67° C | 67% | 1011.5 hPa | 0 mm | - | 14 W/m² | - |
| 1777502310 | 26.67° C | 66% | 1011.3 hPa | 0 mm | - | 28 W/m² | - |
| 1777502006 | 26.67° C | 66% | 1011.2 hPa | 0 mm | - | 38 W/m² | - |
| 1777501703 | 27.22° C | 66% | 1011 hPa | 0 mm | - | 39 W/m² | - |
| 1777501401 | 27.78° C | 64% | 1010.8 hPa | 0 mm | - | 44 W/m² | - |
| 1777501098 | 27.78° C | 63% | 1010.7 hPa | 0 mm | - | 83 W/m² | - |
| 1777500796 | 27.78° C | 62% | 1010.8 hPa | 0 mm | - | 107 W/m² | - |
| 1777500493 | 27.78° C | 62% | 1010.5 hPa | 0 mm | - | 136 W/m² | - |
| 1777500189 | 27.78° C | 61% | 1010.6 hPa | 0 mm | - | 174 W/m² | - |
| 1777498978 | 28.33° C | 60% | 1010.8 hPa | 0 mm | - | 201 W/m² | - |
| 1777498673 | 28.33° C | 59% | 1010.9 hPa | 0 mm | - | 100 W/m² | - |
| 1777498370 | 28.33° C | 59% | 1010.8 hPa | 0 mm | - | 199 W/m² | - |
| 1777497764 | 28.89° C | 57% | 1010.7 hPa | 0 mm | - | 211 W/m² | - |
| 1777497461 | 28.89° C | 57% | 1010.7 hPa | 0 mm | - | 173 W/m² | - |
| 1777497157 | 28.89° C | 56% | 1010.8 hPa | 0 mm | - | 162 W/m² | - |
| 1777496854 | 28.89° C | 57% | 1010.8 hPa | 0 mm | - | 211 W/m² | - |
| 1777496551 | 28.89° C | 57% | 1011.2 hPa | 0 mm | - | 167 W/m² | - |
| 1777496247 | 28.89° C | 57% | 1011 hPa | 0 mm | - | 235 W/m² | - |
| 1777495943 | 28.89° C | 58% | 1011 hPa | 0 mm | - | 251 W/m² | - |
| 1777495639 | 28.89° C | 58% | 1011.2 hPa | 0 mm | - | 322 W/m² | - |
| 1777494730 | 28.89° C | 57% | 1011.2 hPa | 0 mm | - | 193 W/m² | - |
| 1777494427 | 28.89° C | 55% | 1011.5 hPa | 0 mm | - | 178 W/m² | - |
| 1777494123 | 28.89° C | 55% | 1011.4 hPa | 0 mm | - | 189 W/m² | - |
* Rain latest hour (hover to see other rain measurements)
** Current wind speed in m/s (hover to see current wind gust speed)